sat.trackr.live / text

‹ back to catalog

EXPRESS-AMU1

NORAD 41191 · 2015-082A

PAYLOAD ACTIVE UNKNOWN

§ Identity

Operator
Country
CIS
Launch date
2015-12-24
Launch site
TYMSC
Launch vehicle
Mass (kg)
RCS (m²)
19.26

Purposes: comms

External: N2YO · Heavens-Above · Gunter

§ Orbital elements

Epoch: 2026-09-20T03:24:27.117792Z

Period
1,436.08 min
Inclination
0.0166°
Eccentricity
0.0002414
Mean motion
1.00273239 rev/d
Perigee alt
35,776.0 km
Apogee alt
35,796.4 km
Semi-major
42,164.3 km
B*
0.0000e+0
RAAN
140.8902°
Arg perigee
43.6552°
Mean anomaly
261.7049°
Rev number
3,921

§ Raw data

EXPRESS-AMU11 41191U 15082A   26263.14198053  .00000151  00000+0  00000+0 0  99972 41191   0.0166 140.8902 0002414  43.6552 261.7049  1.00273239 39212

JSON: /api/v1/satellites/41191 · /tle

For live sub-satellite position, see the globe view (requires WebGL).

§ Visibility from observer

Set your observer location to see the next 7 days of passes ≥ 10°. The values pass through the URL so the page stays shareable.

No JS? Fill the form by hand. The geolocation button needs JavaScript.